Location: Ch�risy
(50.2331°N, 2.9131°E)
Time: 20:12:56
(UTC+00:00)

ATLAS 5 CENTAUR R/B - Pass Details

Date: 17 January 2021
Orbit: 511 x 1147 km, 63.3° (Epoch: 16 February)

Event Time Altitude Azimuth Distance (km) Brightness Sun altitude
Rises 17:52:45 0° 211° (SSW) 2,642 5.5 -14.8°
Reaches altitude 10° 17:54:50 10° 208° (SSW) 1,793 4.5 -15.1°
Maximum altitude 17:58:45 62° 128° (SE) 656 1.5 -15.7°
Enters shadow 18:00:58 27° 56° (NE) 1,172 2.4 -16.0°
